When you browse on this site, cookies collect data to enhance your experience and personalize the content and advertising you see.
Visit our Privacy Policy to learn more. By continuing to use the site, you agree to this use of cookies and data.
  • In Schweiz
  • Länderverzeichnis
  • Für 7 Tage
  • Wassertemperatur
  • Wetterkarte
  • Widgets
  • user-avatar
    Anmelden

    Stündliche Wetter Adelaide

    Heute, 21 Februar, Freitag

    Zeit Temperatur Niederschläge Wind Luftdruck Luftfeuchtigkeit
    00:00 +14°C° 0 mm 4 m/S 760 mmHg 78%
    01:00 +14°C° 0 mm 4 m/S 760 mmHg 77%
    02:00 +14°C° 0 mm 4 m/S 760 mmHg 76%
    03:00 +15°C° 0 mm 4 m/S 760 mmHg 76%
    04:00 +14°C° 0 mm 4 m/S 760 mmHg 75%
    05:00 +14°C° 0 mm 4 m/S 761 mmHg 74%
    06:00 +14°C° 0 mm 3 m/S 761 mmHg 74%
    07:00 +15°C° 0 mm 4 m/S 761 mmHg 68%
    08:00 +18°C° 0 mm 4 m/S 761 mmHg 61%
    09:00 +19°C° 0 mm 4 m/S 762 mmHg 56%
    10:00 +20°C° 0 mm 4 m/S 762 mmHg 51%
    11:00 +22°C° 0 mm 4 m/S 761 mmHg 47%
    12:00 +23°C° 0 mm 4 m/S 761 mmHg 43%
    13:00 +23°C° 0 mm 5 m/S 761 mmHg 44%
    14:00 +25°C° 0 mm 5 m/S 760 mmHg 45%
    15:00 +23°C° 0 mm 5 m/S 760 mmHg 46%
    22:00 +15°C° 0 mm 5 m/S 762 mmHg 76%
    23:00 +15°C° 0 mm 5 m/S 762 mmHg 76%

    Morgen, 22 Februar, Samstag

    Zeit Temperatur Niederschläge Wind Luftdruck Luftfeuchtigkeit
    00:00 +15°C° 0 mm 5 m/S 762 mmHg 76%
    01:00 +15°C° 0 mm 4 m/S 762 mmHg 74%
    02:00 +15°C° 0 mm 4 m/S 762 mmHg 71%
    03:00 +16°C° 0 mm 3 m/S 761 mmHg 69%
    04:00 +16°C° 0 mm 3 m/S 762 mmHg 68%
    05:00 +15°C° 0 mm 2 m/S 762 mmHg 66%
    06:00 +15°C° 0 mm 2 m/S 762 mmHg 65%
    07:00 +17°C° 0 mm 2 m/S 762 mmHg 57%
    08:00 +20°C° 0 mm 2 m/S 762 mmHg 50%
    09:00 +23°C° 0 mm 2 m/S 762 mmHg 42%
    10:00 +24°C° 0 mm 2 m/S 762 mmHg 39%
    11:00 +26°C° 0 mm 2 m/S 762 mmHg 37%
    12:00 +28°C° 0 mm 3 m/S 762 mmHg 35%
    13:00 +27°C° 0 mm 4 m/S 761 mmHg 36%
    14:00 +27°C° 0 mm 4 m/S 760 mmHg 38%
    15:00 +27°C° 0 mm 5 m/S 760 mmHg 39%
    16:00 +26°C° 0 mm 5 m/S 760 mmHg 42%
    17:00 +25°C° 0 mm 5 m/S 759 mmHg 44%
    18:00 +23°C° 0 mm 5 m/S 759 mmHg 47%
    19:00 +21°C° 0 mm 5 m/S 760 mmHg 52%
    20:00 +20°C° 0 mm 4 m/S 760 mmHg 56%
    21:00 +18°C° 0 mm 4 m/S 760 mmHg 61%
    22:00 +18°C° 0 mm 3 m/S 760 mmHg 62%
    23:00 +18°C° 0 mm 3 m/S 760 mmHg 62%

    übermorgen, 23 Februar, Sonntag

    Zeit Temperatur Niederschläge Wind Luftdruck Luftfeuchtigkeit
    00:00 +18°C° 0 mm 2 m/S 760 mmHg 62%
    01:00 +18°C° 0 mm 2 m/S 760 mmHg 60%
    02:00 +18°C° 0 mm 2 m/S 759 mmHg 57%
    03:00 +19°C° 0 mm 1 m/S 759 mmHg 55%
    04:00 +19°C° 0 mm 1 m/S 759 mmHg 51%
    05:00 +20°C° 0 mm 1 m/S 759 mmHg 48%
    06:00 +20°C° 0 mm 1 m/S 759 mmHg 44%
    07:00 +23°C° 0 mm 1 m/S 759 mmHg 39%
    08:00 +25°C° 0 mm 1 m/S 760 mmHg 34%
    09:00 +28°C° 0 mm 1 m/S 760 mmHg 29%
    10:00 +29°C° 0 mm 2 m/S 759 mmHg 27%
    11:00 +30°C° 0 mm 2 m/S 759 mmHg 25%
    12:00 +31°C° 0 mm 2 m/S 759 mmHg 23%
    13:00 +31°C° 0 mm 3 m/S 758 mmHg 24%
    14:00 +31°C° 0 mm 3 m/S 757 mmHg 24%
    15:00 +32°C° 0 mm 4 m/S 757 mmHg 25%
    16:00 +30°C° 0 mm 3 m/S 757 mmHg 27%
    17:00 +29°C° 0 mm 3 m/S 757 mmHg 28%
    18:00 +29°C° 0 mm 2 m/S 757 mmHg 30%
    19:00 +27°C° 0 mm 3 m/S 758 mmHg 35%
    20:00 +26°C° 0 mm 3 m/S 758 mmHg 41%
    21:00 +25°C° 0 mm 4 m/S 759 mmHg 46%
    22:00 +23°C° 0 mm 4 m/S 759 mmHg 50%
    23:00 +22°C° 0 mm 4 m/S 758 mmHg 54%

    24 Februar, Montag

    Zeit Temperatur Niederschläge Wind Luftdruck Luftfeuchtigkeit
    00:00 +21°C° 0 mm 4 m/S 758 mmHg 57%
    01:00 +21°C° 0 mm 3 m/S 758 mmHg 55%
    02:00 +23°C° 0 mm 2 m/S 758 mmHg 52%
    03:00 +23°C° 0 mm 1 m/S 757 mmHg 49%
    04:00 +23°C° 0 mm 1 m/S 758 mmHg 49%
    05:00 +24°C° 0 mm 1 m/S 758 mmHg 49%
    06:00 +24°C° 0 mm 1 m/S 758 mmHg 49%
    07:00 +25°C° 0 mm 2 m/S 758 mmHg 50%
    08:00 +26°C° 0 mm 2 m/S 758 mmHg 52%
    09:00 +28°C° 0 mm 2 m/S 758 mmHg 53%
    10:00 +28°C° 0 mm 2 m/S 758 mmHg 50%
    11:00 +29°C° 0 mm 3 m/S 758 mmHg 47%
    12:00 +30°C° 0 mm 3 m/S 758 mmHg 44%
    13:00 +30°C° 0 mm 3 m/S 758 mmHg 42%
    14:00 +30°C° 0 mm 3 m/S 757 mmHg 39%
    15:00 +30°C° 0 mm 3 m/S 756 mmHg 36%
    16:00 +29°C° 0 mm 3 m/S 757 mmHg 40%
    17:00 +28°C° 0 mm 3 m/S 757 mmHg 45%
    18:00 +27°C° 0 mm 3 m/S 757 mmHg 49%
    19:00 +25°C° 0 mm 3 m/S 757 mmHg 54%
    20:00 +24°C° 0 mm 3 m/S 757 mmHg 59%
    21:00 +21°C° 0 mm 3 m/S 758 mmHg 64%
    22:00 +21°C° 0 mm 2 m/S 758 mmHg 64%
    23:00 +21°C° 0 mm 2 m/S 757 mmHg 63%

    25 Februar, Dienstag

    Zeit Temperatur Niederschläge Wind Luftdruck Luftfeuchtigkeit
    00:00 +20°C° 0 mm 2 m/S 757 mmHg 62%
    01:00 +20°C° 0 mm 2 m/S 757 mmHg 63%
    02:00 +20°C° 0 mm 2 m/S 757 mmHg 65%
    03:00 +19°C° 0 mm 2 m/S 756 mmHg 66%
    04:00 +19°C° 0 mm 2 m/S 757 mmHg 66%
    05:00 +19°C° 0 mm 2 m/S 757 mmHg 66%
    06:00 +19°C° 0 mm 2 m/S 757 mmHg 67%
    07:00 +21°C° 0 mm 2 m/S 757 mmHg 60%
    08:00 +25°C° 0 mm 2 m/S 757 mmHg 52%
    09:00 +27°C° 0 mm 2 m/S 757 mmHg 45%
    10:00 +27°C° 0 mm 3 m/S 757 mmHg 45%
    11:00 +28°C° 0 mm 4 m/S 756 mmHg 45%
    12:00 +28°C° 0 mm 5 m/S 756 mmHg 46%
    13:00 +28°C° 0 mm 5 m/S 756 mmHg 44%
    14:00 +28°C° 0 mm 5 m/S 756 mmHg 42%
    15:00 +28°C° 0 mm 6 m/S 755 mmHg 40%
    16:00 +27°C° 0 mm 6 m/S 756 mmHg 44%
    17:00 +26°C° 0 mm 6 m/S 756 mmHg 48%
    18:00 +23°C° 0 mm 6 m/S 757 mmHg 51%
    19:00 +22°C° 0 mm 5 m/S 757 mmHg 58%
    20:00 +21°C° 0 mm 4 m/S 757 mmHg 64%
    21:00 +19°C° 0 mm 4 m/S 758 mmHg 71%
    22:00 +19°C° 0 mm 4 m/S 758 mmHg 74%
    23:00 +18°C° 0 mm 4 m/S 757 mmHg 76%

    26 Februar, Mittwoch

    Zeit Temperatur Niederschläge Wind Luftdruck Luftfeuchtigkeit
    00:00 +18°C° 0 mm 3 m/S 757 mmHg 79%
    01:00 +18°C° 0 mm 4 m/S 757 mmHg 80%
    02:00 +18°C° 0 mm 4 m/S 757 mmHg 82%
    03:00 +19°C° 0 mm 4 m/S 757 mmHg 83%
    04:00 +18°C° 0 mm 4 m/S 757 mmHg 83%
    05:00 +18°C° 0 mm 4 m/S 757 mmHg 82%
    06:00 +17°C° 0 mm 4 m/S 758 mmHg 82%
    07:00 +18°C° 0 mm 4 m/S 758 mmHg 74%
    08:00 +18°C° 0 mm 4 m/S 759 mmHg 67%
    09:00 +19°C° 0 mm 4 m/S 759 mmHg 59%
    10:00 +20°C° 0 mm 5 m/S 759 mmHg 55%
    11:00 +21°C° 0 mm 5 m/S 759 mmHg 50%
    12:00 +22°C° 0 mm 5 m/S 759 mmHg 46%
    13:00 +22°C° 0 mm 6 m/S 759 mmHg 46%
    14:00 +22°C° 0 mm 6 m/S 758 mmHg 45%
    15:00 +22°C° 0 mm 6 m/S 758 mmHg 45%
    16:00 +21°C° 0 mm 6 m/S 758 mmHg 48%
    17:00 +19°C° 0 mm 6 m/S 758 mmHg 52%
    18:00 +17°C° 0 mm 6 m/S 759 mmHg 55%
    19:00 +16°C° 0 mm 5 m/S 759 mmHg 60%
    20:00 +15°C° 0 mm 5 m/S 760 mmHg 64%
    21:00 +14°C° 0 mm 4 m/S 760 mmHg 69%
    22:00 +14°C° 0 mm 4 m/S 760 mmHg 70%
    23:00 +13°C° 0 mm 4 m/S 760 mmHg 71%
    Mehr zeigen